Flag for Germany Weather past 2 weeks in Bautzen, Saxony, Germany

Now
53 °F

Clear.


Feels Like: 52 °F
Forecast: 46 / 75 °F
Wind: 3 mph from Southwest

Location: Goerlitz

Current Time: Jul 31, 2015 at 4:06:10 AM

Latest Report: Jul 31, 2015 at 3:00 AM


Visibility: 22 mi

Pressure: 30.03 "Hg

Humidity: 70%

Dew point: 43 °F

Location of BautzenLocation

Historic Weather in Bautzen — Graph

°F

Bautzen temperature yesterday

Maximum temperature yesterday: 67 °F (at 6:00 PM)
Minimum temperature yesterday: 50 °F (at 5:00 AM)
Average temperature yesterday: 59 °F

Past Weeks' High & Low Weather Summary

 TemperatureHumidityPressure
High92 °F (Jul 22, 5:00 PM)97% (Jul 23, 3:00 AM)30.10 "Hg (Jul 23, 3:00 AM)
Low50 °F (Jul 30, 5:00 AM)30% (Jul 18, 4:00 PM)29.60 "Hg (Jul 27, 3:00 PM)
Average69 °F61%29.87 "Hg
* Reported Jul 16 3:00 AM — Jul 31 3:00 AM, Bautzen, Weather by CustomWeather, © 2015

Note: Actual official high and low records may vary slightly from our data, if they occured in-between our weather recording intervals... More about our weather records

Advertising

Bautzen weather history for previous 24 hours

 ConditionsComfort  
Time TempWeatherWind HumidityBarometerVisibility
3:00 AM
Fri, Jul 31
53 °FClear.3 mph70%30.03 "Hg22 mi
2:00 AM53 °FClear.2 mph68%30.02 "Hg25 mi
1:00 AM54 °FPassing clouds.2 mph63%30.01 "Hg28 mi
11:00 PM
Thu, Jul 30
54 °FPassing clouds.3 mph63%29.99 "Hg28 mi
10:00 PM56 °FPassing clouds.3 mph56%29.97 "Hg25 mi
9:00 PM62 °FPassing clouds.3 mph43%29.95 "Hg28 mi
8:00 PM65 °FPartly sunny.3 mph39%29.93 "Hg34 mi
7:00 PM66 °FPartly sunny.5 mph38%29.91 "Hg40 mi
6:00 PM67 °FPartly sunny.7 mph37%29.91 "Hg43 mi
5:00 PM66 °FPartly sunny.6 mph40%29.91 "Hg43 mi
4:00 PM66 °FPartly sunny.6 mph38%29.90 "Hg43 mi
3:00 PM66 °FPartly sunny.8 mph38%29.90 "Hg43 mi
2:00 PM66 °FPartly sunny.8 mph40%29.90 "Hg43 mi
1:00 PM64 °FScattered clouds.9 mph39%29.90 "Hg43 mi
12:00 PM65 °FScattered clouds.8 mph43%29.90 "Hg43 mi
11:00 AM64 °FPassing clouds.10 mph40%29.88 "Hg43 mi
10:00 AM62 °FPassing clouds.9 mph45%29.88 "Hg43 mi
9:00 AM59 °FPassing clouds.8 mph52%29.88 "Hg43 mi
8:00 AM57 °FPassing clouds.7 mph61%29.88 "Hg43 mi
7:00 AM54 °FSunny.6 mph69%29.88 "Hg43 mi
5:00 AM50 °FClear.5 mph79%29.88 "Hg40 mi
4:00 AM52 °FClear.6 mph73%29.87 "Hg40 mi
Weather by CustomWeather, © 2015

See weather overviewHow to use our weather pages